Погода в Преображенской

Россия / Волгоградская область     50°44′30″N   43°03′26″E
темп.,
°C
ветер,
м/с
пор.,
м/с
влажн.,
%
обл.,
%
осадки,
мм/ч
давл.,
гПа
погр.,
м
19 января, вт
вт1900:00−16ссв119799 0.1 101820
03:00−19ссв1110090 0.2 101820
06:00−20ююз1110046 0.0 101820
09:00−18зсз119771 0.1 101922
12:00−16ююз0192100 0.1 1019187
15:00−15юз1295100 0.1 1018155
18:00−19юз229997 0.0 101920
21:00−20зюз2210097 0.1 102020
20 января, ср
ср2000:00−21зюз2310094 0.0 102020
03:00−21з239986 0.1 102121
06:00−20з339892 0.1 102245
09:00−20з349792 0.1 1023111
12:00−19з359594 0.1 1024264
15:00−18з359596 0.1 1024288
18:00−21з339789 0.0 102624
21:00−22з239744 0.0 102720
21 января, чт
чт2100:00−23з239836 0.0 102821
03:00−23з339727 0.0 102930
06:00−23з239716 0.0 102920
09:00−23зюз239611 0.0 103121
12:00−18зюз35940 0.0 1030203
15:00−17юз35942 0.0 1029180
18:00−19ююз479543 0.0 102994
21:00−18ююз5109147 0.0 1028185
22 января, пт
пт2200:00−15юз6129184 0.0 1026310
03:00−12юз6119491 0.1 1025277
06:00−6юз61294100 0.1 1023429
09:00−4юз61294100 0.1 1022440
12:000зюз61393100 0.0 1022670
15:00+1зюз613100100 0.0 1021530
18:00+1зюз51295100 0.0 1022534
21:00+1юз51393100 0.0 1022543
23 января, сб
сб2300:000юз6119793 0.0 1022407
03:00+1юз6129696 0.0 1023533
06:00+1юз51294100 0.0 1023471
09:000ююз61293100 0.0 1023366
12:000ююз61185100 0.0 1023346
15:00−1ююз5108499 0.0 1023330
18:00−4ю498587 0.0 1023180
21:00−4ю498383 0.0 1023182